Erie, PA

12:23 PM EDT on October 23, 2019 (GMT -0400)
Erie International

Weather History for KERI - August, 2019

Change the Weather History Date:

Tuesday, August 13, 2019

  Actual Average Record
Temperature  
Mean Temperature 75 °F 71 °F  
Max Temperature 79 °F 79 °F 91 °F (1945)
Min Temperature 70 °F 63 °F 47 °F (1954)
Degree Days  
Heating Degree Days 0 0  
Month to date heating degree days 0 0  
Since 1 June heating degree days 38 68  
Since 1 July heating degree days 0 7  
Cooling Degree Days 10 6  
Month to date cooling degree days 109 86  
Year to date cooling degree days 574 461  
Since 1 June cooling degree days 541 422  
Growing Degree Days 24 (Base 50)    
Moisture  
Dew Point 67 °F    
Average Humidity 77    
Maximum Humidity 90    
Minimum Humidity 64    
Precipitation  
Precipitation 0.46 in 0.11 in 1.23 in (2013)
Month to date precipitation 1.35 1.50  
Year to date precipitation 23.85 23.86  
Snow  
Snow 0.00 in 0.00 in - ()
Month to date snowfall 0.0 0.0  
Since 1 June snowfall 0.0 0.0  
Since 1 July snowfall 0.0 0.0  
Snow Depth 0.00 in    
Sea Level Pressure  
Sea Level Pressure 29.80 in    
Wind  
Wind Speed 6 mph (SW)    
Max Wind Speed 13 mph    
Max Gust Speed 15 mph    
Visibility 8 miles    
Events Rain    
T = Trace of Precipitation, MM = Missing Value Source: NWS Daily Summary

Daily Weather History Graph

Daily Weather History Graph

Search for Another Location

Airport or City:

Astronomy

Aug. 13, 2019 Rise Set
Actual Time 6:26 AM EDT 8:24 PM EDT
Civil Twilight 5:55 AM EDT 8:54 PM EDT
Nautical Twilight 5:18 AM EDT 9:31 PM EDT
Astronomical Twilight 4:38 AM EDT 10:11 PM EDT
Moon 7:40 PM EDT (8/13) 4:24 AM EDT (8/13)
Length of Visible Light 14h 58m
Length of Day
13h 58m
Waxing Gibbous, 97% of the Moon is Illuminated
Aug 13
Waxing Gibbous
Aug 15
Full
Aug 23
Last Quarter
Aug 30
New
Sep 5
First Quarter

Hourly Weather History & Observations

Time (EDT) Temp. Dew Point Humidity Pressure Visibility Wind Dir Wind Speed Gust Speed Precip Events Conditions
12:51 AM 75.0 °F 63.0 °F 66% 29.82 in 10.0 mi South 10.4 mph - N/A   Scattered Clouds
1:51 AM 73.0 °F 64.9 °F 76% 29.81 in 10.0 mi South 8.1 mph - 0.00 in   Scattered Clouds
2:51 AM 72.0 °F 64.9 °F 78% 29.81 in 10.0 mi South 6.9 mph - 0.00 in Rain Light Rain
3:34 AM 72.0 °F 64.9 °F 78% 29.82 in 10.0 mi South 9.2 mph - 0.00 in   Overcast
3:51 AM 72.0 °F 64.9 °F 78% 29.80 in 10.0 mi South 9.2 mph - 0.00 in Rain Light Rain
4:19 AM 72.0 °F 64.9 °F 78% 29.80 in 10.0 mi South 8.1 mph - 0.00 in   Overcast
4:39 AM 72.0 °F 64.9 °F 78% 29.80 in 10.0 mi South 9.2 mph - 0.00 in   Overcast
4:51 AM 72.0 °F 64.9 °F 78% 29.78 in 10.0 mi South 8.1 mph - 0.00 in   Overcast
5:51 AM 72.0 °F 64.9 °F 78% 29.77 in 10.0 mi South 6.9 mph - N/A   Overcast
6:51 AM 72.0 °F 66.0 °F 81% 29.79 in 10.0 mi South 6.9 mph - 0.00 in Rain Light Rain
7:18 AM 71.1 °F 66.0 °F 84% 29.80 in 1.8 mi SSW 8.1 mph - 0.02 in Rain Heavy Rain
7:46 AM 69.8 °F 66.2 °F 88% 29.81 in 2.5 mi SSW 9.2 mph - 0.12 in Rain Light Rain
7:51 AM 70.0 °F 66.0 °F 87% 29.80 in 3.0 mi SSW 10.4 mph - 0.12 in Rain Light Rain
7:58 AM 70.0 °F 66.0 °F 87% 29.81 in 2.0 mi SSW 9.2 mph - 0.01 in Rain Light Rain
8:02 AM 70.0 °F 66.0 °F 87% 29.81 in 1.2 mi South 10.4 mph - 0.04 in Rain Heavy Rain
8:32 AM 70.0 °F 66.9 °F 90% 29.82 in 1.2 mi SSW 9.2 mph - 0.25 in Rain Rain
8:40 AM 70.0 °F 66.0 °F 87% 29.82 in 1.8 mi SSW 6.9 mph - 0.27 in Rain Rain
8:51 AM 70.0 °F 66.0 °F 87% 29.81 in 2.0 mi South 8.1 mph - 0.32 in Rain Rain
9:06 AM 71.1 °F 66.9 °F 87% 29.82 in 6.0 mi South 6.9 mph - 0.02 in Rain Light Rain
9:14 AM 71.1 °F 66.9 °F 87% 29.82 in 9.0 mi South 6.9 mph - 0.02 in   Overcast
9:51 AM 72.0 °F 66.9 °F 84% 29.80 in 10.0 mi South 8.1 mph - 0.02 in   Overcast
10:51 AM 72.0 °F 68.0 °F 87% 29.80 in 9.0 mi South 6.9 mph - N/A   Overcast
11:51 AM 73.0 °F 68.0 °F 84% 29.80 in 10.0 mi South 8.1 mph - N/A   Overcast
12:51 PM 73.9 °F 66.9 °F 79% 29.80 in 10.0 mi South 9.2 mph - N/A   Overcast
1:51 PM 75.0 °F 68.0 °F 79% 29.79 in 10.0 mi South 5.8 mph - N/A   Overcast
2:51 PM 77.0 °F 68.0 °F 74% 29.78 in 10.0 mi SSW 5.8 mph - N/A   Overcast
3:51 PM 77.0 °F 66.9 °F 71% 29.76 in 10.0 mi NW 4.6 mph - N/A   Overcast
4:51 PM 79.0 °F 68.0 °F 69% 29.76 in 10.0 mi Calm Calm - N/A   Overcast
5:46 PM 77.0 °F 66.2 °F 69% 29.79 in 10.0 mi NW 6.9 mph - N/A   Overcast
5:51 PM 77.0 °F 66.9 °F 71% 29.78 in 10.0 mi NW 8.1 mph - N/A   Overcast
6:00 PM 77.0 °F 66.9 °F 71% 29.79 in 10.0 mi NW 5.8 mph - N/A   Overcast
6:51 PM 78.1 °F 68.0 °F 71% 29.78 in 10.0 mi NW 4.6 mph - N/A   Clear
7:19 PM 75.9 °F 68.0 °F 76% 29.79 in 10.0 mi NNW 5.8 mph - N/A   Mostly Cloudy
7:51 PM 75.9 °F 68.0 °F 76% 29.79 in 10.0 mi NNW 3.5 mph - N/A   Overcast
8:18 PM 75.0 °F 69.1 °F 82% 29.80 in 10.0 mi NNW 3.5 mph - N/A   Partly Cloudy
8:36 PM 75.0 °F 69.1 °F 82% 29.81 in 10.0 mi NNW 3.5 mph - N/A   Mostly Cloudy
8:51 PM 75.0 °F 69.1 °F 82% 29.80 in 10.0 mi North 3.5 mph - N/A   Overcast
9:31 PM 75.0 °F 69.1 °F 82% 29.82 in 10.0 mi North 4.6 mph - N/A   Overcast
9:47 PM 75.2 °F 69.8 °F 83% 29.83 in 10.0 mi NNE 4.6 mph - N/A   Overcast
9:51 PM 75.0 °F 69.1 °F 82% 29.82 in 10.0 mi NNE 4.6 mph - N/A   Overcast
9:59 PM 75.0 °F 69.1 °F 82% 29.83 in 10.0 mi NE 4.6 mph - N/A   Overcast
10:34 PM 73.9 °F 69.1 °F 85% 29.83 in 10.0 mi Calm Calm - N/A   Scattered Clouds
10:51 PM 73.9 °F 69.1 °F 85% 29.82 in 10.0 mi Calm Calm - N/A   Clear
11:10 PM 75.0 °F 69.1 °F 82% 29.84 in 10.0 mi North 3.5 mph - N/A   Mostly Cloudy
11:51 PM 73.9 °F 69.1 °F 85% 29.82 in 9.0 mi NE 3.5 mph - N/A   Mostly Cloudy